Time,TemperatureF,DewpointF,PressureIn,WindDirection,WindDirectionDegrees,WindSpeedMPH,WindSpeedGustMPH,Humidity,HourlyPrecipIn,Conditions,Clouds,dailyrainin,SoftwareType,DateUTC
2013-02-13 00:02:00,37.0,32.0,29.95,ENE,63,10.0,12.0,81,0.01,,,0.02,,2013-02-13 05:02:00,
2013-02-13 00:12:00,36.0,33.0,29.93,NE,49,12.0,13.0,88,0.00,,,0.02,,2013-02-13 05:12:00,
2013-02-13 00:22:00,36.0,33.0,29.93,NE,49,12.0,13.0,88,0.00,,,0.02,,2013-02-13 05:22:00,
2013-02-13 00:32:00,36.0,33.0,29.91,NE,39,7.0,11.0,87,0.00,,,0.02,,2013-02-13 05:32:00,
2013-02-13 00:42:00,36.0,33.0,29.91,NE,39,7.0,11.0,87,0.00,,,0.02,,2013-02-13 05:42:00,
2013-02-13 00:52:00,37.0,33.0,29.91,North,8,10.0,12.0,85,0.00,,,0.02,,2013-02-13 05:52:00,
2013-02-13 01:02:00,36.0,32.0,29.90,NNE,27,12.0,13.0,85,0.00,,,0.02,,2013-02-13 06:02:00,
2013-02-13 01:11:00,37.0,31.0,29.89,NE,43,7.0,12.0,80,0.00,,,0.02,,2013-02-13 06:11:00,
2013-02-13 01:21:00,37.0,31.0,29.89,NE,43,7.0,12.0,80,0.00,,,0.02,,2013-02-13 06:21:00,
2013-02-13 01:32:00,37.0,32.0,29.91,North,4,6.0,11.0,82,0.00,,,0.02,,2013-02-13 06:32:00,
2013-02-13 01:42:00,37.0,31.0,29.89,NNE,30,8.0,12.0,79,0.00,,,0.02,,2013-02-13 06:42:00,
2013-02-13 01:52:00,37.0,31.0,29.89,NNE,30,8.0,12.0,79,0.00,,,0.02,,2013-02-13 06:52:00,
2013-02-13 02:02:00,37.0,31.0,29.88,NNE,29,11.0,15.0,80,0.00,,,0.02,,2013-02-13 07:02:00,
2013-02-13 02:11:00,37.0,32.0,29.87,East,95,10.0,21.0,82,0.00,,,0.02,,2013-02-13 07:11:00,
2013-02-13 02:22:00,37.0,32.0,29.87,East,95,10.0,21.0,82,0.00,,,0.02,,2013-02-13 07:22:00,
2013-02-13 02:32:00,37.0,32.0,29.87,ENE,70,11.0,18.0,82,0.00,,,0.02,,2013-02-13 07:32:00,
2013-02-13 02:42:00,37.0,32.0,29.87,ENE,70,11.0,18.0,82,0.00,,,0.02,,2013-02-13 07:42:00,
2013-02-13 02:52:00,37.0,32.0,29.85,East,97,20.0,22.0,82,0.00,,,0.02,,2013-02-13 07:52:00,
2013-02-13 03:01:00,37.0,31.0,29.86,East,95,14.0,19.0,79,0.00,,,0.02,,2013-02-13 08:01:00,
2013-02-13 03:11:00,37.0,31.0,29.86,East,95,14.0,19.0,79,0.00,,,0.02,,2013-02-13 08:11:00,
2013-02-13 03:21:00,37.0,32.0,29.87,East,101,11.0,12.0,81,0.00,,,0.02,,2013-02-13 08:21:00,
2013-02-13 03:32:00,37.0,33.0,29.85,ESE,110,11.0,13.0,84,0.00,,,0.02,,2013-02-13 08:32:00,
2013-02-13 03:43:00,37.0,33.0,29.85,ESE,110,11.0,13.0,84,0.00,,,0.02,,2013-02-13 08:43:00,
2013-02-13 03:52:00,36.0,33.0,29.85,East,101,12.0,14.0,88,0.00,,,0.02,,2013-02-13 08:52:00,
2013-02-13 04:02:00,36.0,33.0,29.84,ESE,108,10.0,11.0,89,0.00,,,0.02,,2013-02-13 09:02:00,
2013-02-13 04:11:00,36.0,33.0,29.84,ESE,108,10.0,11.0,89,0.00,,,0.02,,2013-02-13 09:11:00,
2013-02-13 04:21:00,36.0,34.0,29.83,ESE,110,10.0,14.0,91,0.00,,,0.02,,2013-02-13 09:21:00,
2013-02-13 04:31:00,35.0,33.0,29.83,ESE,115,11.0,13.0,91,0.00,,,0.02,,2013-02-13 09:31:00,
2013-02-13 12:21:00,37.0,37.0,29.75,WSW,250,13.0,21.0,99,0.00,,,0.02,,2013-02-13 17:21:00,
2013-02-13 12:32:00,37.0,37.0,29.75,West,267,17.0,20.0,99,0.00,,,0.02,,2013-02-13 17:32:00,
2013-02-13 12:42:00,37.0,37.0,29.75,West,267,17.0,20.0,99,0.00,,,0.02,,2013-02-13 17:42:00,
2013-02-13 12:52:00,37.0,37.0,29.70,West,273,15.0,18.0,99,0.00,,,0.02,,2013-02-13 17:52:00,
2013-02-13 13:02:00,37.0,37.0,29.72,WSW,256,17.0,22.0,99,0.00,,,0.02,,2013-02-13 18:02:00,
2013-02-13 13:11:00,37.0,37.0,29.72,WSW,256,17.0,22.0,99,0.00,,,0.02,,2013-02-13 18:11:00,
2013-02-13 13:23:00,37.0,37.0,29.69,West,259,22.0,30.0,99,0.00,,,0.02,,2013-02-13 18:23:00,
2013-02-13 13:32:00,37.0,37.0,29.70,WSW,257,21.0,25.0,99,0.00,,,0.02,,2013-02-13 18:32:00,
2013-02-13 13:42:00,37.0,37.0,29.70,WSW,257,21.0,25.0,99,0.00,,,0.02,,2013-02-13 18:42:00,
2013-02-13 13:52:00,37.0,37.0,29.69,WSW,248,21.0,30.0,99,0.00,,,0.02,,2013-02-13 18:52:00,
2013-02-13 14:01:00,37.0,37.0,29.67,West,271,23.0,30.0,99,0.00,,,0.02,,2013-02-13 19:01:00,
2013-02-13 14:11:00,37.0,37.0,29.67,West,259,26.0,35.0,99,0.00,,,0.02,,2013-02-13 19:11:00,
2013-02-13 14:21:00,37.0,37.0,29.67,West,259,26.0,35.0,99,0.00,,,0.02,,2013-02-13 19:21:00,
2013-02-13 14:32:00,37.0,37.0,29.68,SW,226,24.0,29.0,99,0.00,,,0.02,,2013-02-13 19:32:00,
2013-02-13 14:42:00,37.0,37.0,29.68,SW,226,24.0,29.0,99,0.00,,,0.02,,2013-02-13 19:42:00,
2013-02-13 14:52:00,37.0,37.0,29.68,WSW,242,29.0,38.0,99,0.00,,,0.02,,2013-02-13 19:52:00,
2013-02-13 15:02:00,37.0,37.0,29.68,West,269,23.0,33.0,99,0.00,,,0.02,,2013-02-13 20:02:00,
2013-02-13 15:11:00,37.0,37.0,29.67,WSW,245,27.0,35.0,99,0.00,,,0.02,,2013-02-13 20:11:00,
2013-02-13 15:21:00,37.0,37.0,29.67,WSW,245,27.0,35.0,99,0.00,,,0.02,,2013-02-13 20:21:00,
2013-02-13 15:32:00,38.0,38.0,29.67,SW,236,33.0,37.0,99,0.00,,,0.02,,2013-02-13 20:32:00,
2013-02-13 15:42:00,38.0,38.0,29.66,SSW,195,27.0,34.0,99,0.00,,,0.02,,2013-02-13 20:42:00,
2013-02-13 15:52:00,38.0,38.0,29.66,SSW,195,27.0,34.0,99,0.00,,,0.02,,2013-02-13 20:52:00,
2013-02-13 16:01:00,38.0,38.0,29.67,SW,235,26.0,35.0,99,0.00,,,0.02,,2013-02-13 21:01:00,
2013-02-13 16:11:00,38.0,38.0,29.67,SW,235,26.0,35.0,99,0.00,,,0.02,,2013-02-13 21:11:00,
2013-02-13 16:21:00,38.0,38.0,29.67,SW,236,32.0,40.0,99,0.00,,,0.02,,2013-02-13 21:21:00,
2013-02-13 16:32:00,38.0,38.0,29.68,WSW,242,28.0,43.0,99,0.00,,,0.02,,2013-02-13 21:32:00,
2013-02-13 16:42:00,38.0,38.0,29.68,WSW,242,28.0,43.0,99,0.00,,,0.02,,2013-02-13 21:42:00,
2013-02-13 16:52:00,39.0,39.0,29.67,West,262,31.0,39.0,99,0.00,,,0.02,,2013-02-13 21:52:00,
2013-02-13 17:02:00,39.0,39.0,29.68,West,264,26.0,40.0,99,0.00,,,0.02,,2013-02-13 22:02:00,
2013-02-13 17:11:00,39.0,39.0,29.68,West,264,26.0,40.0,99,0.00,,,0.02,,2013-02-13 22:11:00,
2013-02-13 17:21:00,40.0,40.0,29.69,West,264,26.0,36.0,99,0.00,,,0.02,,2013-02-13 22:21:00,
2013-02-13 17:32:00,40.0,40.0,29.70,West,275,24.0,35.0,99,0.00,,,0.02,,2013-02-13 22:32:00,
2013-02-13 17:42:00,40.0,40.0,29.70,West,275,24.0,35.0,99,0.00,,,0.02,,2013-02-13 22:42:00,
2013-02-13 17:52:00,40.0,40.0,29.71,West,274,23.0,32.0,99,0.00,,,0.02,,2013-02-13 22:52:00,
2013-02-13 18:01:00,40.0,40.0,29.72,WNW,283,24.0,30.0,99,0.00,,,0.02,,2013-02-13 23:01:00,
2013-02-13 18:11:00,40.0,40.0,29.72,WNW,283,24.0,30.0,99,0.00,,,0.02,,2013-02-13 23:11:00,
2013-02-13 18:22:00,41.0,38.0,29.73,West,278,23.0,29.0,88,0.00,,,0.02,,2013-02-13 23:22:00,
2013-02-13 18:32:00,40.0,38.0,29.74,WSW,246,22.0,28.0,91,0.00,,,0.02,,2013-02-13 23:32:00,
2013-02-13 18:42:00,40.0,38.0,29.74,WSW,246,22.0,28.0,91,0.00,,,0.02,,2013-02-13 23:42:00,
2013-02-13 18:52:00,40.0,38.0,29.76,WNW,292,13.0,25.0,93,0.00,,,0.02,,2013-02-13 23:52:00,
2013-02-13 19:02:00,39.0,36.0,29.77,NNW,338,23.0,31.0,89,0.00,,,0.02,,2013-02-14 00:02:00,
2013-02-13 19:11:00,39.0,36.0,29.77,NNW,338,23.0,31.0,89,0.00,,,0.02,,2013-02-14 00:11:00,
2013-02-13 19:22:00,38.0,34.0,29.78,NNW,336,30.0,38.0,84,0.00,,,0.02,,2013-02-14 00:22:00,
2013-02-13 19:32:00,37.0,33.0,29.78,NNW,333,24.0,36.0,85,0.00,,,0.02,,2013-02-14 00:32:00,
2013-02-13 19:42:00,37.0,33.0,29.78,NNW,333,24.0,36.0,85,0.00,,,0.02,,2013-02-14 00:42:00,
2013-02-13 19:52:00,36.0,31.0,29.79,NNW,337,28.0,38.0,81,0.00,,,0.02,,2013-02-14 00:52:00,
2013-02-13 20:01:00,36.0,32.0,29.79,NNW,338,29.0,36.0,84,0.00,,,0.02,,2013-02-14 01:01:00,
2013-02-13 20:11:00,36.0,32.0,29.79,NNW,338,29.0,36.0,84,0.00,,,0.02,,2013-02-14 01:11:00,
2013-02-13 20:21:00,34.0,31.0,29.79,NNW,338,27.0,38.0,88,0.00,,,0.01,,2013-02-14 01:21:00,
2013-02-13 20:32:00,34.0,31.0,29.79,NNW,335,22.0,38.0,88,0.00,,,0.01,,2013-02-14 01:32:00,
2013-02-13 20:41:00,34.0,31.0,29.79,NNW,335,22.0,38.0,88,0.00,,,0.01,,2013-02-14 01:41:00,
2013-02-13 20:52:00,34.0,31.0,29.80,NNW,335,26.0,36.0,88,0.00,,,0.01,,2013-02-14 01:52:00,
2013-02-13 21:02:00,34.0,30.0,29.80,NNW,342,31.0,41.0,86,0.00,,,0.01,,2013-02-14 02:02:00,
2013-02-13 21:11:00,33.0,30.0,29.79,NNW,340,34.0,45.0,89,0.00,,,0.01,,2013-02-14 02:11:00,
2013-02-13 21:21:00,33.0,30.0,29.79,NNW,340,34.0,45.0,89,0.00,,,0.01,,2013-02-14 02:21:00,
2013-02-13 21:32:00,32.0,29.0,29.80,NNW,337,34.0,44.0,90,0.00,,,0.01,,2013-02-14 02:32:00,
2013-02-13 21:42:00,32.0,29.0,29.80,NNW,337,34.0,44.0,90,0.00,,,0.01,,2013-02-14 02:42:00,
2013-02-13 21:52:00,32.0,29.0,29.80,NNW,337,34.0,44.0,90,0.00,,,0.01,,2013-02-14 02:52:00,
2013-02-13 22:02:00,32.0,29.0,29.81,NNW,335,35.0,42.0,89,0.00,,,0.01,,2013-02-14 03:02:00,
2013-02-13 22:11:00,32.0,29.0,29.80,NNW,328,40.0,46.0,89,0.00,,,0.01,,2013-02-14 03:11:00,
2013-02-13 22:22:00,32.0,29.0,29.80,NNW,328,40.0,46.0,89,0.00,,,0.01,,2013-02-14 03:22:00,
2013-02-13 22:32:00,31.0,28.0,29.80,NNW,338,43.0,52.0,89,0.01,,,0.02,,2013-02-14 03:32:00,
2013-02-13 22:42:00,31.0,28.0,29.80,NNW,338,43.0,52.0,89,0.01,,,0.02,,2013-02-14 03:42:00,
2013-02-13 22:52:00,31.0,28.0,29.80,NNW,340,42.0,54.0,88,0.01,,,0.02,,2013-02-14 03:52:00,
2013-02-13 23:01:00,31.0,27.0,29.80,NNW,336,41.0,54.0,86,0.01,,,0.02,,2013-02-14 04:01:00,
2013-02-13 23:12:00,32.0,28.0,29.81,NNW,340,42.0,53.0,85,0.01,,,0.01,,2013-02-14 04:12:00,
2013-02-13 23:21:00,32.0,28.0,29.81,NNW,340,42.0,53.0,85,0.01,,,0.01,,2013-02-14 04:21:00,
2013-02-13 23:32:00,31.0,27.0,29.81,NNW,335,42.0,56.0,86,0.00,,,0.01,,2013-02-14 04:32:00,
2013-02-13 23:42:00,31.0,27.0,29.81,NNW,335,42.0,56.0,86,0.00,,,0.01,,2013-02-14 04:42:00,
2013-02-13 23:52:00,31.0,28.0,29.81,NNW,338,43.0,56.0,87,0.00,,,0.01,,2013-02-14 04:52:00,